Time,TemperatureF,DewpointF,PressureIn,WindDirection,WindDirectionDegrees,WindSpeedMPH,WindSpeedGustMPH,Humidity,HourlyPrecipIn,Conditions,Clouds,dailyrainin,SoftwareType,DateUTC
2013-04-29 00:01:00,50.1,29.0,30.19,SSE,157,1.0,2.0,44,0.00,,,-99.99,WeatherLink 5.7,2013-04-29 04:01:00,
2013-04-29 00:10:00,49.8,28.7,30.19,SSE,157,1.0,2.0,44,0.00,,,-99.99,WeatherLink 5.7,2013-04-29 04:10:00,
2013-04-29 00:21:00,49.6,28.6,30.20,South,180,1.0,2.0,44,0.00,,,-99.99,WeatherLink 5.7,2013-04-29 04:21:00,
2013-04-29 00:31:00,49.4,28.4,30.20,SSE,157,0.0,3.0,44,0.00,,,-99.99,WeatherLink 5.7,2013-04-29 04:31:00,
2013-04-29 00:40:00,49.2,28.7,30.20,North,-999,0.0,0.0,45,0.00,,,-99.99,WeatherLink 5.7,2013-04-29 04:40:00,
2013-04-29 00:50:00,48.8,28.4,30.20,SSE,157,0.0,2.0,45,0.00,,,-99.99,WeatherLink 5.7,2013-04-29 04:50:00,
2013-04-29 00:55:00,48.6,28.2,30.20,SSE,157,0.0,2.0,45,0.00,,,-99.99,WeatherLink 5.7,2013-04-29 04:55:00,
2013-04-29 01:00:00,48.6,28.2,30.20,North,-999,0.0,0.0,45,0.00,,,-99.99,WeatherLink 5.7,2013-04-29 05:00:00,
2013-04-29 01:10:00,48.2,28.9,30.20,North,-999,0.0,0.0,47,0.00,,,-99.99,WeatherLink 5.7,2013-04-29 05:10:00,
2013-04-29 01:20:00,47.9,28.6,30.19,North,-999,0.0,0.0,47,0.00,,,-99.99,WeatherLink 5.7,2013-04-29 05:20:00,
2013-04-29 01:30:00,47.6,28.9,30.19,North,-999,0.0,0.0,48,0.00,,,-99.99,WeatherLink 5.7,2013-04-29 05:30:00,
2013-04-29 01:36:00,47.3,29.6,30.19,SSE,157,0.0,1.0,50,0.00,,,-99.99,WeatherLink 5.7,2013-04-29 05:36:00,
2013-04-29 01:45:00,47.0,29.3,30.19,SSE,157,0.0,2.0,50,0.00,,,-99.99,WeatherLink 5.7,2013-04-29 05:45:00,
2013-04-29 01:55:00,47.0,29.8,30.18,South,180,0.0,2.0,51,0.00,,,-99.99,WeatherLink 5.7,2013-04-29 05:55:00,
2013-04-29 02:01:00,47.0,30.3,30.18,South,180,0.0,1.0,52,0.00,,,-99.99,WeatherLink 5.7,2013-04-29 06:01:00,
2013-04-29 02:10:00,46.8,31.0,30.18,South,180,0.0,1.0,54,0.00,,,-99.99,WeatherLink 5.7,2013-04-29 06:10:00,
2013-04-29 02:15:00,46.8,31.5,30.18,North,-999,0.0,0.0,55,0.00,,,-99.99,WeatherLink 5.7,2013-04-29 06:15:00,
2013-04-29 02:20:00,46.8,31.5,30.18,South,180,1.0,3.0,55,0.00,,,-99.99,WeatherLink 5.7,2013-04-29 06:20:00,
2013-04-29 02:30:00,46.8,32.4,30.18,North,-999,0.0,0.0,57,0.00,,,-99.99,WeatherLink 5.7,2013-04-29 06:30:00,
2013-04-29 02:40:00,46.5,32.5,30.17,North,-999,0.0,0.0,58,0.00,,,-99.99,WeatherLink 5.7,2013-04-29 06:40:00,
2013-04-29 02:46:00,46.5,32.9,30.17,South,180,0.0,2.0,59,0.00,,,-99.99,WeatherLink 5.7,2013-04-29 06:46:00,
2013-04-29 02:55:00,46.4,33.7,30.17,North,-999,0.0,0.0,61,0.00,,,-99.99,WeatherLink 5.7,2013-04-29 06:55:00,
2013-04-29 03:05:00,46.1,33.8,30.17,North,-999,0.0,0.0,62,0.00,,,-99.99,WeatherLink 5.7,2013-04-29 07:05:00,
2013-04-29 03:15:00,45.8,33.9,30.17,North,-999,0.0,0.0,63,0.00,,,-99.99,WeatherLink 5.7,2013-04-29 07:15:00,
2013-04-29 03:20:00,45.7,34.2,30.17,North,-999,0.0,0.0,64,0.00,,,-99.99,WeatherLink 5.7,2013-04-29 07:20:00,
2013-04-29 03:30:00,45.5,34.4,30.17,North,-999,0.0,0.0,65,0.00,,,-99.99,WeatherLink 5.7,2013-04-29 07:30:00,
2013-04-29 03:40:00,45.5,35.2,30.17,North,-999,0.0,0.0,67,0.00,,,-99.99,WeatherLink 5.7,2013-04-29 07:40:00,
2013-04-29 03:46:00,45.7,35.7,30.17,North,-999,0.0,0.0,68,0.00,,,-99.99,WeatherLink 5.7,2013-04-29 07:46:00,
2013-04-29 03:56:00,45.5,35.5,30.17,North,-999,0.0,0.0,68,0.00,,,-99.99,WeatherLink 5.7,2013-04-29 07:56:00,
2013-04-29 04:05:00,45.2,35.6,30.17,North,-999,0.0,0.0,69,0.00,,,-99.99,WeatherLink 5.7,2013-04-29 08:05:00,
2013-04-29 04:16:00,44.9,35.7,30.17,North,-999,0.0,0.0,70,0.00,,,-99.99,WeatherLink 5.7,2013-04-29 08:16:00,
2013-04-29 04:26:00,44.6,36.1,30.17,North,-999,0.0,0.0,72,0.00,,,-99.99,WeatherLink 5.7,2013-04-29 08:26:00,
2013-04-29 04:35:00,44.5,36.7,30.17,North,-999,0.0,0.0,74,0.00,,,-99.99,WeatherLink 5.7,2013-04-29 08:35:00,
2013-04-29 04:45:00,44.3,37.2,30.17,North,-999,0.0,0.0,76,0.00,,,-99.99,WeatherLink 5.7,2013-04-29 08:45:00,
2013-04-29 04:55:00,44.3,37.5,30.17,North,-999,0.0,0.0,77,0.00,,,-99.99,WeatherLink 5.7,2013-04-29 08:55:00,
2013-04-29 05:05:00,44.2,37.1,30.17,North,-999,0.0,0.0,76,0.00,,,-99.99,WeatherLink 5.7,2013-04-29 09:05:00,
2013-04-29 05:10:00,44.2,37.8,30.17,North,-999,0.0,0.0,78,0.00,,,-99.99,WeatherLink 5.7,2013-04-29 09:10:00,
2013-04-29 05:20:00,44.1,37.7,30.17,North,-999,0.0,0.0,78,0.00,,,-99.99,WeatherLink 5.7,2013-04-29 09:20:00,
2013-04-29 05:30:00,43.9,37.5,30.17,North,-999,0.0,0.0,78,0.00,,,-99.99,WeatherLink 5.7,2013-04-29 09:30:00,
2013-04-29 05:40:00,43.8,37.7,30.18,North,-999,0.0,0.0,79,0.00,,,-99.99,WeatherLink 5.7,2013-04-29 09:40:00,
2013-04-29 05:46:00,43.8,38.0,30.18,North,-999,0.0,0.0,80,0.00,,,-99.99,WeatherLink 5.7,2013-04-29 09:46:00,
2013-04-29 05:55:00,43.8,38.3,30.18,North,-999,0.0,0.0,81,0.00,,,-99.99,WeatherLink 5.7,2013-04-29 09:55:00,
2013-04-29 06:05:00,43.8,38.0,30.18,SSW,202,0.0,2.0,80,0.00,,,-99.99,WeatherLink 5.7,2013-04-29 10:05:00,
2013-04-29 06:10:00,43.8,38.0,30.18,North,-999,0.0,0.0,80,0.00,,,-99.99,WeatherLink 5.7,2013-04-29 10:10:00,
2013-04-29 06:20:00,44.1,39.0,30.19,North,-999,0.0,0.0,82,0.00,,,-99.99,WeatherLink 5.7,2013-04-29 10:20:00,
2013-04-29 06:26:00,44.3,39.5,30.19,SSW,202,0.0,2.0,83,0.00,,,-99.99,WeatherLink 5.7,2013-04-29 10:26:00,
2013-04-29 06:35:00,44.9,40.0,30.19,SSE,157,0.0,1.0,83,0.00,,,-99.99,WeatherLink 5.7,2013-04-29 10:35:00,
2013-04-29 06:45:00,45.4,40.5,30.19,South,180,1.0,2.0,83,0.00,,,-99.99,WeatherLink 5.7,2013-04-29 10:45:00,
2013-04-29 06:55:00,45.7,40.5,30.19,South,180,1.0,3.0,82,0.00,,,-99.99,WeatherLink 5.7,2013-04-29 10:55:00,
2013-04-29 07:05:00,46.1,40.9,30.20,SSE,157,0.0,1.0,82,0.00,,,-99.99,WeatherLink 5.7,2013-04-29 11:05:00,
2013-04-29 07:10:00,46.4,41.2,30.20,SSE,157,0.0,3.0,82,0.00,,,-99.99,WeatherLink 5.7,2013-04-29 11:10:00,
2013-04-29 07:20:00,46.8,41.6,30.20,SSE,157,0.0,2.0,82,0.00,,,-99.99,WeatherLink 5.7,2013-04-29 11:20:00,
2013-04-29 07:30:00,47.7,42.2,30.20,SSE,157,1.0,3.0,81,0.00,,,-99.99,WeatherLink 5.7,2013-04-29 11:30:00,
2013-04-29 07:40:00,48.5,42.3,30.20,SSW,202,1.0,3.0,79,0.00,,,-99.99,WeatherLink 5.7,2013-04-29 11:40:00,
2013-04-29 07:50:00,49.5,42.2,30.20,South,180,1.0,5.0,76,0.00,,,-99.99,WeatherLink 5.7,2013-04-29 11:50:00,
2013-04-29 08:00:00,50.7,43.1,30.20,SSW,202,0.0,3.0,75,0.00,,,-99.99,WeatherLink 5.7,2013-04-29 12:00:00,
2013-04-29 08:10:00,52.6,43.5,30.20,South,180,2.0,6.0,71,0.00,,,-99.99,WeatherLink 5.7,2013-04-29 12:10:00,
2013-04-29 08:20:00,54.2,43.9,30.20,SSW,202,2.0,3.0,68,0.00,,,-99.99,WeatherLink 5.7,2013-04-29 12:20:00,
2013-04-29 08:31:00,56.0,44.8,30.20,SSW,202,1.0,4.0,66,0.00,,,-99.99,WeatherLink 5.7,2013-04-29 12:31:00,
2013-04-29 08:40:00,57.3,44.4,30.20,SSW,202,3.0,6.0,62,0.00,,,-99.99,WeatherLink 5.7,2013-04-29 12:40:00,
2013-04-29 08:45:00,57.5,44.6,30.20,South,180,3.0,8.0,62,0.00,,,-99.99,WeatherLink 5.7,2013-04-29 12:45:00,
2013-04-29 08:55:00,58.3,44.9,30.20,South,180,3.0,7.0,61,0.00,,,-99.99,WeatherLink 5.7,2013-04-29 12:55:00,
2013-04-29 09:05:00,59.9,45.1,30.19,WSW,247,1.0,5.0,58,0.00,,,-99.99,WeatherLink 5.7,2013-04-29 13:05:00,
2013-04-29 09:15:00,62.1,45.7,30.19,WSW,247,2.0,5.0,55,0.00,,,-99.99,WeatherLink 5.7,2013-04-29 13:15:00,
2013-04-29 09:20:00,62.7,45.3,30.19,WSW,247,2.0,7.0,53,0.00,,,-99.99,WeatherLink 5.7,2013-04-29 13:20:00,
2013-04-29 09:30:00,63.5,45.6,30.19,SSW,202,2.0,7.0,52,0.00,,,-99.99,WeatherLink 5.7,2013-04-29 13:30:00,
2013-04-29 09:40:00,64.2,45.7,30.19,SSW,202,3.0,8.0,51,0.00,,,-99.99,WeatherLink 5.7,2013-04-29 13:40:00,
2013-04-29 09:50:00,65.0,46.4,30.19,South,180,2.0,6.0,51,0.00,,,-99.99,WeatherLink 5.7,2013-04-29 13:50:00,
2013-04-29 10:00:00,66.8,46.5,30.19,SSW,202,3.0,7.0,48,0.00,,,-99.99,WeatherLink 5.7,2013-04-29 14:00:00,
2013-04-29 10:06:00,66.4,46.1,30.18,SSW,202,3.0,10.0,48,0.00,,,-99.99,WeatherLink 5.7,2013-04-29 14:06:00,
2013-04-29 10:15:00,66.9,46.0,30.18,SSW,202,4.0,8.0,47,0.00,,,-99.99,WeatherLink 5.7,2013-04-29 14:15:00,
2013-04-29 10:25:00,66.6,46.3,30.18,ESE,112,2.0,6.0,48,0.00,,,-99.99,WeatherLink 5.7,2013-04-29 14:25:00,
2013-04-29 10:31:00,66.3,44.9,30.18,South,180,5.0,11.0,46,0.00,,,-99.99,WeatherLink 5.7,2013-04-29 14:31:00,
2013-04-29 10:41:00,67.3,44.0,30.18,SSW,202,5.0,10.0,43,0.00,,,-99.99,WeatherLink 5.7,2013-04-29 14:41:00,
2013-04-29 10:51:00,68.6,44.6,30.18,SSW,202,2.0,6.0,42,0.00,,,-99.99,WeatherLink 5.7,2013-04-29 14:51:00,
2013-04-29 11:00:00,69.6,43.5,30.18,SSW,202,5.0,12.0,39,0.00,,,-99.99,WeatherLink 5.7,2013-04-29 15:00:00,
2013-04-29 11:05:00,69.6,42.9,30.17,SSW,202,4.0,9.0,38,0.00,,,-99.99,WeatherLink 5.7,2013-04-29 15:05:00,
2013-04-29 11:15:00,70.6,41.6,30.17,SSW,202,5.0,11.0,35,0.00,,,-99.99,WeatherLink 5.7,2013-04-29 15:15:00,
2013-04-29 11:25:00,71.1,43.5,30.17,SSW,202,5.0,11.0,37,0.00,,,-99.99,WeatherLink 5.7,2013-04-29 15:25:00,
2013-04-29 11:35:00,70.3,42.1,30.17,SSW,202,5.0,12.0,36,0.00,,,-99.99,WeatherLink 5.7,2013-04-29 15:35:00,
2013-04-29 11:45:00,69.1,43.1,30.17,South,180,5.0,12.0,39,0.00,,,-99.99,WeatherLink 5.7,2013-04-29 15:45:00,
2013-04-29 11:55:00,68.9,42.9,30.17,South,180,4.0,8.0,39,0.00,,,-99.99,WeatherLink 5.7,2013-04-29 15:55:00,
2013-04-29 12:06:00,68.6,43.9,30.17,East,90,3.0,7.0,41,0.00,,,-99.99,WeatherLink 5.7,2013-04-29 16:06:00,
2013-04-29 12:16:00,69.1,43.1,30.17,ESE,112,3.0,7.0,39,0.00,,,-99.99,WeatherLink 5.7,2013-04-29 16:16:00,
2013-04-29 12:26:00,69.8,43.0,30.16,SSW,202,3.0,7.0,38,0.00,,,-99.99,WeatherLink 5.7,2013-04-29 16:26:00,
2013-04-29 12:35:00,71.6,41.7,30.15,South,180,3.0,10.0,34,0.00,,,-99.99,WeatherLink 5.7,2013-04-29 16:35:00,
2013-04-29 12:45:00,69.9,42.4,30.15,SSW,202,4.0,8.0,37,0.00,,,-99.99,WeatherLink 5.7,2013-04-29 16:45:00,
2013-04-29 12:55:00,70.6,40.9,30.15,SSW,202,6.0,12.0,34,0.00,,,-99.99,WeatherLink 5.7,2013-04-29 16:55:00,
2013-04-29 13:00:00,70.8,41.8,30.15,South,180,3.0,9.0,35,0.00,,,-99.99,WeatherLink 5.7,2013-04-29 17:00:00,
2013-04-29 13:10:00,69.4,40.5,30.15,SSW,202,4.0,11.0,35,0.00,,,-99.99,WeatherLink 5.7,2013-04-29 17:10:00,
2013-04-29 13:20:00,69.8,36.1,30.14,South,180,4.0,8.0,29,0.00,,,-99.99,WeatherLink 5.7,2013-04-29 17:20:00,
2013-04-29 13:30:00,69.9,37.9,30.14,ESE,112,5.0,11.0,31,0.00,,,-99.99,WeatherLink 5.7,2013-04-29 17:30:00,
2013-04-29 13:40:00,71.5,36.7,30.14,SSW,202,4.0,12.0,28,0.00,,,-99.99,WeatherLink 5.7,2013-04-29 17:40:00,
2013-04-29 13:45:00,72.1,35.3,30.14,SE,135,5.0,11.0,26,0.00,,,-99.99,WeatherLink 5.7,2013-04-29 17:45:00,
2013-04-29 13:57:00,71.3,35.6,30.14,SSE,157,7.0,14.0,27,0.00,,,-99.99,WeatherLink 5.7,2013-04-29 17:57:00,
2013-04-29 14:06:00,72.7,35.8,30.13,West,270,4.0,12.0,26,0.00,,,-99.99,WeatherLink 5.7,2013-04-29 18:06:00,
2013-04-29 14:15:00,72.1,37.2,30.13,SSW,202,5.0,10.0,28,0.00,,,-99.99,WeatherLink 5.7,2013-04-29 18:15:00,
2013-04-29 14:25:00,71.1,35.4,30.13,SE,135,4.0,8.0,27,0.00,,,-99.99,WeatherLink 5.7,2013-04-29 18:25:00,
2013-04-29 14:35:00,70.3,34.7,30.13,SSW,202,5.0,11.0,27,0.00,,,-99.99,WeatherLink 5.7,2013-04-29 18:35:00,
2013-04-29 14:45:00,70.6,35.9,30.13,SSW,202,5.0,13.0,28,0.00,,,-99.99,WeatherLink 5.7,2013-04-29 18:45:00,
2013-04-29 14:55:00,70.9,34.3,30.12,South,180,4.0,10.0,26,0.00,,,-99.99,WeatherLink 5.7,2013-04-29 18:55:00,
2013-04-29 15:06:00,70.3,35.6,30.12,SSW,202,5.0,12.0,28,0.00,,,-99.99,WeatherLink 5.7,2013-04-29 19:06:00,
2013-04-29 15:15:00,70.4,34.8,30.12,ESE,112,4.0,10.0,27,0.00,,,-99.99,WeatherLink 5.7,2013-04-29 19:15:00,
2013-04-29 15:25:00,69.1,33.7,30.12,South,180,5.0,10.0,27,0.00,,,-99.99,WeatherLink 5.7,2013-04-29 19:25:00,
2013-04-29 15:31:00,69.8,35.2,30.12,South,180,4.0,7.0,28,0.00,,,-99.99,WeatherLink 5.7,2013-04-29 19:31:00,
2013-04-29 15:41:00,70.1,34.5,30.11,SSE,157,4.0,8.0,27,0.00,,,-99.99,WeatherLink 5.7,2013-04-29 19:41:00,
2013-04-29 15:51:00,69.1,34.6,30.11,ESE,112,6.0,14.0,28,0.00,,,-99.99,WeatherLink 5.7,2013-04-29 19:51:00,
2013-04-29 16:00:00,69.3,33.9,30.11,SSW,202,5.0,12.0,27,0.00,,,-99.99,WeatherLink 5.7,2013-04-29 20:00:00,
2013-04-29 16:10:00,68.8,34.3,30.11,East,90,5.0,8.0,28,0.00,,,-99.99,WeatherLink 5.7,2013-04-29 20:10:00,
2013-04-29 16:20:00,68.6,34.2,30.11,ESE,112,5.0,10.0,28,0.00,,,-99.99,WeatherLink 5.7,2013-04-29 20:20:00,
2013-04-29 16:26:00,68.6,34.2,30.11,South,180,5.0,12.0,28,0.00,,,-99.99,WeatherLink 5.7,2013-04-29 20:26:00,
2013-04-29 16:36:00,67.9,33.6,30.11,SE,135,4.0,10.0,28,0.00,,,-99.99,WeatherLink 5.7,2013-04-29 20:36:00,
2013-04-29 16:45:00,66.9,32.7,30.11,SSE,157,4.0,11.0,28,0.00,,,-99.99,WeatherLink 5.7,2013-04-29 20:45:00,
2013-04-29 16:51:00,66.6,32.5,30.11,SSE,157,4.0,12.0,28,0.00,,,-99.99,WeatherLink 5.7,2013-04-29 20:51:00,
2013-04-29 17:01:00,67.1,32.9,30.11,South,180,4.0,8.0,28,0.00,,,-99.99,WeatherLink 5.7,2013-04-29 21:01:00,
2013-04-29 17:11:00,68.3,33.0,30.11,SSW,202,2.0,7.0,27,0.00,,,-99.99,WeatherLink 5.7,2013-04-29 21:11:00,
2013-04-29 17:20:00,68.3,33.0,30.11,SSW,202,4.0,9.0,27,0.00,,,-99.99,WeatherLink 5.7,2013-04-29 21:20:00,
2013-04-29 17:30:00,67.8,32.6,30.11,SSW,202,5.0,11.0,27,0.00,,,-99.99,WeatherLink 5.7,2013-04-29 21:30:00,
2013-04-29 17:40:00,66.9,30.9,30.11,SE,135,4.0,11.0,26,0.00,,,-99.99,WeatherLink 5.7,2013-04-29 21:40:00,
2013-04-29 17:50:00,66.3,30.4,30.12,SSW,202,6.0,13.0,26,0.00,,,-99.99,WeatherLink 5.7,2013-04-29 21:50:00,
2013-04-29 17:55:00,66.0,30.1,30.12,SSW,202,6.0,13.0,26,0.00,,,-99.99,WeatherLink 5.7,2013-04-29 21:55:00,
2013-04-29 18:05:00,65.5,29.7,30.12,SSW,202,7.0,17.0,26,0.00,,,-99.99,WeatherLink 5.7,2013-04-29 22:05:00,
2013-04-29 18:16:00,65.2,30.3,30.12,South,180,4.0,10.0,27,0.00,,,-99.99,WeatherLink 5.7,2013-04-29 22:16:00,
2013-04-29 18:26:00,64.5,28.8,30.13,SSW,202,5.0,12.0,26,0.00,,,-99.99,WeatherLink 5.7,2013-04-29 22:26:00,
2013-04-29 18:36:00,64.2,28.6,30.13,SSW,202,4.0,10.0,26,0.00,,,-99.99,WeatherLink 5.7,2013-04-29 22:36:00,
2013-04-29 18:46:00,63.5,28.9,30.13,SSW,202,5.0,8.0,27,0.00,,,-99.99,WeatherLink 5.7,2013-04-29 22:46:00,
2013-04-29 18:55:00,62.6,28.1,30.14,South,180,3.0,6.0,27,0.00,,,-99.99,WeatherLink 5.7,2013-04-29 22:55:00,
2013-04-29 19:00:00,62.3,27.9,30.14,SSW,202,3.0,7.0,27,0.00,,,-99.99,WeatherLink 5.7,2013-04-29 23:00:00,
2013-04-29 19:10:00,61.6,27.3,30.14,South,180,3.0,8.0,27,0.00,,,-99.99,WeatherLink 5.7,2013-04-29 23:10:00,
2013-04-29 19:20:00,61.0,27.6,30.14,SSW,202,3.0,11.0,28,0.00,,,-99.99,WeatherLink 5.7,2013-04-29 23:20:00,
2013-04-29 19:31:00,60.5,27.2,30.14,SSE,157,3.0,6.0,28,0.00,,,-99.99,WeatherLink 5.7,2013-04-29 23:31:00,
2013-04-29 19:40:00,59.9,27.5,30.15,SSW,202,3.0,6.0,29,0.00,,,-99.99,WeatherLink 5.7,2013-04-29 23:40:00,
2013-04-29 19:45:00,59.8,27.4,30.15,South,180,2.0,3.0,29,0.00,,,-99.99,WeatherLink 5.7,2013-04-29 23:45:00,
2013-04-29 19:55:00,59.3,27.8,30.15,SSE,157,3.0,8.0,30,0.00,,,-99.99,WeatherLink 5.7,2013-04-29 23:55:00,
2013-04-29 20:06:00,58.9,28.3,30.16,SSE,157,1.0,6.0,31,0.00,,,-99.99,WeatherLink 5.7,2013-04-30 00:06:00,
2013-04-29 20:15:00,58.4,28.6,30.16,SSW,202,1.0,3.0,32,0.00,,,-99.99,WeatherLink 5.7,2013-04-30 00:15:00,
2013-04-29 20:26:00,58.0,28.3,30.16,South,180,2.0,6.0,32,0.00,,,-99.99,WeatherLink 5.7,2013-04-30 00:26:00,
2013-04-29 20:35:00,57.6,28.7,30.16,SSE,157,2.0,6.0,33,0.00,,,-99.99,WeatherLink 5.7,2013-04-30 00:35:00,
2013-04-29 20:45:00,57.2,29.1,30.16,South,180,1.0,5.0,34,0.00,,,-99.99,WeatherLink 5.7,2013-04-30 00:45:00,
2013-04-29 20:55:00,57.0,28.1,30.17,South,180,1.0,2.0,33,0.00,,,-99.99,WeatherLink 5.7,2013-04-30 00:55:00,
2013-04-29 21:05:00,57.0,28.1,30.17,SSE,157,1.0,4.0,33,0.00,,,-99.99,WeatherLink 5.7,2013-04-30 01:05:00,
2013-04-29 21:11:00,56.9,27.3,30.17,SSW,202,1.0,3.0,32,0.00,,,-99.99,WeatherLink 5.7,2013-04-30 01:11:00,
2013-04-29 21:21:00,56.7,26.4,30.17,South,180,2.0,6.0,31,0.00,,,-99.99,WeatherLink 5.7,2013-04-30 01:21:00,
2013-04-29 21:30:00,56.7,25.6,30.17,South,180,2.0,4.0,30,0.00,,,-99.99,WeatherLink 5.7,2013-04-30 01:30:00,
2013-04-29 21:40:00,56.5,26.2,30.18,SW,225,1.0,4.0,31,0.00,,,-99.99,WeatherLink 5.7,2013-04-30 01:40:00,
2013-04-29 21:51:00,56.3,26.8,30.17,SW,225,1.0,3.0,32,0.00,,,-99.99,WeatherLink 5.7,2013-04-30 01:51:00,
2013-04-29 22:00:00,56.0,26.5,30.17,SW,225,0.0,2.0,32,0.00,,,-99.99,WeatherLink 5.7,2013-04-30 02:00:00,
2013-04-29 22:10:00,55.7,26.3,30.18,SSW,202,0.0,2.0,32,0.00,,,-99.99,WeatherLink 5.7,2013-04-30 02:10:00,
2013-04-29 22:20:00,55.4,27.5,30.18,SSW,202,0.0,1.0,34,0.00,,,-99.99,WeatherLink 5.7,2013-04-30 02:20:00,
2013-04-29 22:26:00,55.3,27.4,30.18,SSW,202,0.0,1.0,34,0.00,,,-99.99,WeatherLink 5.7,2013-04-30 02:26:00,
2013-04-29 22:35:00,55.1,27.2,30.17,North,-999,0.0,0.0,34,0.00,,,-99.99,WeatherLink 5.7,2013-04-30 02:35:00,
2013-04-29 22:45:00,54.8,26.9,30.17,North,-999,0.0,0.0,34,0.00,,,-99.99,WeatherLink 5.7,2013-04-30 02:45:00,
2013-04-29 22:55:00,54.7,27.6,30.18,North,-999,0.0,0.0,35,0.00,,,-99.99,WeatherLink 5.7,2013-04-30 02:55:00,
2013-04-29 23:01:00,54.7,27.6,30.18,North,-999,0.0,0.0,35,0.00,,,-99.99,WeatherLink 5.7,2013-04-30 03:01:00,
2013-04-29 23:11:00,54.5,28.7,30.18,North,-999,0.0,0.0,37,0.00,,,-99.99,WeatherLink 5.7,2013-04-30 03:11:00,
2013-04-29 23:21:00,54.5,29.4,30.18,North,-999,0.0,0.0,38,0.00,,,-99.99,WeatherLink 5.7,2013-04-30 03:21:00,
2013-04-29 23:30:00,54.4,28.6,30.18,North,-999,0.0,0.0,37,0.00,,,-99.99,WeatherLink 5.7,2013-04-30 03:30:00,
2013-04-29 23:40:00,54.4,28.0,30.18,North,-999,0.0,0.0,36,0.00,,,-99.99,WeatherLink 5.7,2013-04-30 03:40:00,
2013-04-29 23:46:00,54.4,27.3,30.18,SSW,202,0.0,1.0,35,0.00,,,-99.99,WeatherLink 5.7,2013-04-30 03:46:00,
2013-04-29 23:56:00,54.4,28.0,30.18,North,-999,0.0,0.0,36,0.00,,,-99.99,WeatherLink 5.7,2013-04-30 03:56:00,